[ hide orbit diagram ]
For accurate long-term ephemerides, please instead use our Horizons system.This orbit viewer was implemented using two-body methods, and hence should not be used for determining accurate long-term trajectories (over several years or decades) or planetary encounter circumstances.
Orbital Elements at Epoch 2459000.5 (2020-May-31.0) TDB
Reference: JPL 28 (heliocentric ecliptic J2000)
Element | Value | Uncertainty (1-sigma) | Units |
e | .2075984193567685 | 3.1508e-08 | |
a | 2.446746888474238 | 8.5116e-09 | au |
q | 1.938806101860895 | 7.6909e-08 | au |
i | 13.96059080956036 | 6.0372e-06 | deg |
node | 28.20391456599048 | 1.4586e-05 | deg |
peri | 225.3939263335264 | 2.1603e-05 | deg |
M | 63.93030369046286 | 1.5999e-05 | deg |
tp | 2458752.251712861990 (2019-Sep-25.75171286) | 6.1907e-05 | TDB |
period | 1397.918955655074 3.83 | 7.2945e-06 1.997e-08 | d yr |
n | .2575256587970807 | 1.3438e-09 | deg/d |
Q | 2.954687675087582 | 1.0279e-08 | au |
|
| | Orbit Determination Parameters
Additional Information
|
[ show covariance matrix ]
Physical Parameter Table
Parameter |
Symbol |
Value |
Units |
Sigma |
Reference |
Notes |
absolute magnitude |
H |
14.1 |
|
n/a |
MPO473967 |
|
diameter |
diameter |
4.881 |
km |
0.492 |
urn:nasa:pds:neowise_diameters_albedos::2.0[mainbelt] (http://adsabs.harvard.edu/abs/2011ApJ...741...68M) |
|
geometric albedo |
albedo |
0.258 |
|
0.101 |
urn:nasa:pds:neowise_diameters_albedos::2.0[mainbelt] (http://adsabs.harvard.edu/abs/2016AJ....152...63N) |
|
|
14812 Rosario | Discovered 1981 May 9 by the Félix Aguilar Observatory team at the El Leoncito Station. |
One of the largest cities in Argentina, Rosario is located near the Parana River. The city has a planetarium, and astronomical activities are carried out at the Physics Institute of the Rosario National University. The name was suggested by W. A. Fröger. |
NOTE: some special characters may not display properly (any characters within {} are an attempt to place the proper accent above a character) |
Reference: 20070926/MPCPages.arc | Last Updated: 2007-09-30 |
|
|